{"data":{"norad_id":43923,"epoch":"2026-05-25T02:49:50.441088Z","epoch_age_seconds":68322,"freshness":"FRESH","line1":"1 43923U 19002B   26145.11794492  .00000648  00000+0  98860-4 0  9990","line2":"2 43923  86.6105   3.1894 0002240  87.3490 272.7983 14.72251134395851","mean_motion":14.72251134,"eccentricity":0.000224,"inclination_deg":86.6105,"raan_deg":3.1894,"arg_perigee_deg":87.349,"mean_anomaly_deg":272.7983,"bstar":9.886e-5,"rev_number":39585,"period_min":97.809399955266,"perigee_km":652.31558263739,"apogee_km":655.46593107246,"semimajor_km":7032.0277568549,"source":"CELESTRAK","updated_at":"2026-05-25T13:38:14.813933Z"}}